CYQXCYJT

Guest
Details From CYQX - Gander Intl
To CYJT - Stephenville
Flight Number -
Tags Generated
Created
Modified
Stats Distance 160 nm / 296 km
Max Altitude 0 ft / 0 m
Waypoints 2
Social Downloads 1
Likes 0
Share VATSIM

Download

Looking for another format? Having issues loading an existing format? Contact us
Advertisement - Login to hide

Notes

Generated

Route

CYQX CYJT

ID Type Via Altitude Latitude Longitude Leg Dist Tot Dist Heading (true) Name
O CYQX APT - 0 ft / 0 m 48.94339˚ -54.56803˚ - 0 nm - GANDER INTL
O CYJT APT - 0 ft / 0 m 48.53389˚ -58.55250˚ 159 nm 159 nm 263° / 260° -

Altitude Profile

Advertisement - Login to hide

CYQX

Details ICAO CYQX (YQX)
Name GANDER INTL
Region Canada
Timezone America/St_Johns (UTC-2.5)
Stats Elevation 496 ft / 151 m (AMSL)
Location 48.942962° -54.565864°
Runways 3
Magnetic Variation 18.832° W

METAR

CYQX 230700Z 34011KT 15SM SCT028 OVC035 M00/M05 A3028 RMK SC4SC4 SLP262

Decode

TAF

TAF CYQX 230538Z 2306/2406 31012KT P6SM OVC030 TEMPO 2306/2313 4SM -SHSN OVC020 PROB30 2306/2313 21/2SM -SHSN FM231300 31012KT P6SM SCT030 FM232000 30005KT P6SM FEW030 BECMG 2401/2403 25005KT RMK NXT FCST BY 231200Z

Decode

Departure Runways

ID Width Length Bearing (true) Bearing (mag) Surface Threshold Offset Overrun Length
03 200 ft / 61 m 10,230 ft / 3,118 m 10.93° 29.76° Asphalt 0 ft / 0 m 200 ft / 61 m
09 50 ft / 15 m 1,874 ft / 571 m 62.63° 81.46° Asphalt 0 ft / 0 m 75 ft / 23 m
13 200 ft / 61 m 8,855 ft / 2,699 m 107.30° 126.13° Asphalt 0 ft / 0 m 200 ft / 61 m
21 200 ft / 61 m 10,230 ft / 3,118 m 190.94° 209.77° Asphalt 0 ft / 0 m 199 ft / 61 m
27 50 ft / 15 m 1,874 ft / 571 m 242.64° 261.47° Asphalt 0 ft / 0 m 250 ft / 76 m
31 200 ft / 61 m 8,855 ft / 2,699 m 287.33° 306.16° Asphalt 0 ft / 0 m 201 ft / 61 m

CYJT

Details ICAO CYJT (YJT)
Name STEPHENVILLE
Region Canada
Timezone America/St_Johns (UTC-2.5)
Stats Elevation 80 ft / 24 m (AMSL)
Location 48.541811° -58.551488°
Runways 2
Magnetic Variation 18.948° W

METAR

CYJT 230700Z 31005KT 15SM SCT220 01/M01 A3039 RMK CI4 SLP293

Decode

TAF

TAF CYJT 230538Z 2306/2406 29008KT P6SM FEW030 SCT220 TEMPO 2306/2312 BKN030 BECMG 2318/2320 25008KT FM240000 VRB03KT P6SM SCT025 RMK NXT FCST BY 231200Z

Decode

Destination Runways

ID Width Length Bearing (true) Bearing (mag) Surface Threshold Offset Overrun Length
02 150 ft / 46 m 3,770 ft / 1,149 m 355.50° 14.45° Asphalt 0 ft / 0 m 0 ft / 0 m
09 200 ft / 61 m 9,970 ft / 3,039 m 71.61° 90.56° Asphalt 0 ft / 0 m 1,000 ft / 305 m
20 150 ft / 46 m 3,770 ft / 1,149 m 175.50° 194.45° Asphalt 0 ft / 0 m 0 ft / 0 m
27 200 ft / 61 m 9,970 ft / 3,039 m 251.64° 270.59° Asphalt 0 ft / 0 m 1,000 ft / 305 m

Popular Alternatives